Snowfall_Accumulation
1.8 1.0 0.5 0.3 0.3 0.0 0.4 0.2 5.7 0.8 0.8 0.0 0.0 0.0 0.0 0.4 0.3 0.1 0.0 0.0 0.0 0.0 0.0 0.0 0.0 0.0 0.0 0.0 0.0 0.0 0.0 0.0 0.0 0.0 0.0 0.0 0.0 0.0 0.0 0.0 0.0 0.0 0.0 0.0
2.9 1.2 1.6 0.9 0.1 0.1 0.3 0.6 1.4 1.3 0.9 0.0 0.0 0.0 0.9 0.8 0.5 0.4 0.0 0.0 0.0 0.0 0.0 0.0 0.0 0.1 0.1 0.1 0.1 0.0 0.1 0.0 0.0 0.0 0.0 0.0 0.0 0.0 0.0 0.0 0.0 0.0 0.2 0.0
2.9 1.0 2.4 3.7 0.1 0.2 0.1 0.4 0.6 2.2 0.2 0.0 1.3 1.1 1.0 0.7 0.6 0.5 0.2 0.1 0.0 0.3 0.1 0.2 0.4 0.4 0.5 0.5 0.2 0.0 0.3 0.2 0.2 0.9 0.0 0.7 0.7 0.6 0.9 0.7 0.4 1.2 1.5 1.5
8.3 1.6 14.7 0.3 0.0 1.1 0.4 1.1 0.9 0.8 0.3 0.2 0.5 1.0 1.0 0.9 1.0 0.9 1.3 1.7 1.3 1.3 1.1 1.1 0.6 0.7 0.5 1.1 0.6 2.4 1.8 2.2 1.7 2.4 3.4 4.4 4.7 4.6 4.0 2.9 3.0 3.4 4.9 4.3
15.1 9.2 0.3 0.0 1.7 5.0 6.1 4.7 2.8 2.3 1.4 1.3 1.2 0.9 3.1 2.1 1.6 2.6 3.2 3.6 6.2 1.9 1.8 2.3 1.8 1.7 3.7 4.8 5.1 4.8 6.6 6.9 6.9 7.1 7.2 6.8 7.5 6.7 5.8 5.7 5.6 6.9 5.5 5.6
10.5 16.9 10.2 5.4 0.9 0.0 3.2 7.5 2.1 2.8 2.5 2.0 2.4 3.8 3.8 2.1 3.4 4.6 4.7 4.2 3.7 6.6 6.1 4.5 4.8 3.2 5.0 8.3 9.9 11.1 12.4 12.3 8.9 7.7 8.0 9.5 7.7 9.1 9.5 6.9 7.3 6.8 10.3 7.3
8.5 11.0 5.2 3.0 1.4 1.6 8.7 7.9 2.3 3.8 4.2 3.0 5.5 4.0 6.1 6.3 7.3 7.9 4.6 4.0 3.7 3.0 4.9 7.3 6.0 6.3 7.8 9.5 11.2 12.2 14.3 12.4 10.3 10.1 11.4 10.8 10.2 9.8 13.2 14.8 12.1 8.7 10.2 9.6
10.6 19.6 14.8 0.3 1.2 5.5 5.6 3.3 2.9 4.3 4.4 4.8 4.2 4.0 6.5 7.6 10.2 9.5 6.5 2.9 2.1 3.0 2.8 1.5 1.0 1.1 6.2 11.2 12.6 14.2 14.0 12.2 11.4 10.4 9.7 10.1 10.0 11.9 11.4 12.4 16.4 18.7 17.7 15.7
7.8 9.1 3.3 1.6 3.0 3.1 2.8 3.0 3.7 3.6 3.9 3.6 3.8 8.6 9.3 10.1 11.1 11.8 7.3 1.8 1.0 0.9 0.4 0.3 0.2 0.0 0.9 3.0 5.8 9.8 11.9 13.2 11.4 10.4 9.7 8.4 9.1 10.2 11.0 11.8 11.5 11.6 11.9 14.2
3.8 3.6 2.4 2.5 1.8 1.5 2.1 2.5 2.7 2.1 3.1 7.0 10.7 11.6 12.6 13.2 10.9 9.1 6.2 1.5 0.5 0.1 0.1 0.4 0.5 0.6 0.1 1.3 2.5 3.8 5.1 6.3 7.2 7.3 7.6 7.1 6.1 6.1 6.3 8.0 8.8 10.1 10.4 10.1
4.6 3.8 2.4 2.0 2.5 1.9 2.6 2.2 2.6 2.6 1.8 3.5 4.9 6.1 3.9 4.4 5.3 5.8 5.7 3.5 1.2 0.7 0.6 1.1 0.6 0.4 1.2 1.7 2.1 3.5 4.5 5.0 5.3 5.3 5.0 4.8 4.9 4.3 3.8 5.3 3.8 4.4 5.6 5.8
6.0 2.2 3.8 5.6 3.6 2.2 2.5 4.2 3.1 1.0 0.8 0.9 1.8 3.2 3.5 3.4 2.7 2.6 3.1 2.9 1.9 2.0 1.3 1.0 0.1 1.3 1.9 1.5 0.6 1.1 2.0 3.5 3.0 3.6 2.7 2.7 2.0 4.1 3.5 3.4 3.2 2.2 2.2 5.7
6.2 4.5 6.1 5.5 3.5 1.8 1.9 2.5 2.5 1.8 1.2 0.8 0.7 0.2 1.1 2.2 2.0 1.8 1.8 1.9 2.8 2.9 2.4 4.5 1.4 4.7 5.4 4.2 1.9 3.0 2.3 2.5 3.3 2.9 2.4 4.2 4.5 3.3 4.3 6.9 7.4 9.3 11.5 11.5
2.1 2.2 2.6 2.2 2.1 0.9 0.1 0.0 0.0 0.0 0.0 0.0 0.2 0.0 0.0 0.2 0.2 0.2 1.0 1.4 1.1 3.2 5.2 6.9 6.0 9.5 10.2 8.8 7.4 8.2 10.9 9.8 6.5 8.1 11.0 13.8 16.6 18.3 19.2 20.8 21.1 24.3 20.6 17.0
2.0 0.8 0.5 0.0 0.0 0.0 0.0 0.0 0.0 0.0 0.0 0.0 0.0 0.0 0.2 0.1 0.4 1.3 1.3 1.2 1.7 2.2 3.5 4.8 6.1 9.6 12.1 13.5 15.3 18.0 19.5 21.6 21.2 21.0 20.3 18.4 16.9 16.8 17.0 17.5 18.0 18.6 19.2 18.2
1.1 0.2 0.0 0.0 0.1 0.0 0.0 0.0 0.0 0.0 0.0 0.0 0.0 0.5 0.4 0.5 1.0 1.5 1.9 1.9 1.6 3.2 3.9 4.1 6.9 11.4 11.9 13.2 14.9 16.1 15.8 14.4 13.3 12.6 12.5 11.7 10.8 9.9 10.2 9.8 9.6 9.3 8.6 8.7
0.9 0.8 0.2 0.6 0.2 0.1 0.2 0.2 0.1 0.1 0.3 0.5 1.5 1.1 0.8 0.8 1.1 2.3 4.2 5.4 5.4 7.8 9.4 10.3 14.5 14.9 12.9 11.5 9.5 10.0 10.2 10.3 9.4 8.4 8.5 7.7 6.9 5.8 5.1 4.7 4.0 3.8 4.5 2.3
1.7 2.0 1.4 1.2 1.2 0.4 0.8 1.0 0.9 1.3 1.3 2.5 2.5 2.8 3.3 3.6 5.1 6.7 8.9 9.9 11.9 13.4 14.3 16.4 14.2 12.4 11.3 10.4 7.7 7.0 6.0 5.2 4.5 3.9 3.4 2.9 2.2 1.9 2.3 1.9 1.4 1.7 1.5 1.6
2.0 2.4 2.6 2.6 2.7 2.3 2.3 2.4 2.7 3.0 3.4 3.3 4.2 6.4 8.1 10.6 11.9 14.8 16.2 15.1 14.7 13.0 17.3 12.7 9.6 7.0 6.1 5.3 3.6 3.0 2.6 2.0 2.1 2.1 1.5 1.5 1.4 0.9 1.2 1.1 1.2 2.3 2.5 1.9
3.1 3.1 2.6 2.7 2.6 2.6 3.1 3.7 3.7 6.3 9.0 9.6 11.0 13.1 15.0 18.1 17.1 15.8 13.0 11.8 11.6 11.2 9.5 7.5 5.7 4.4 3.5 2.9 1.9 1.6 1.4 1.3 1.0 1.0 0.9 1.0 1.5 1.5 1.2 0.9 0.8 2.0 2.5 2.8
5.9 5.2 5.2 5.5 8.9 10.2 11.3 12.4 10.4 12.5 16.0 14.6 12.7 14.2 13.6 14.1 12.1 10.2 8.1 7.1 9.6 6.4 5.3 5.3 4.2 3.4 2.1 1.6 1.4 1.4 1.0 0.9 0.5 0.6 1.1 1.1 1.5 1.8 1.9 2.2 2.7 2.8 3.4 2.8
11.3 10.3 13.0 12.5 10.7 14.4 15.9 14.5 11.9 12.1 12.8 12.7 11.9 10.9 8.8 9.7 8.7 6.8 5.5 5.0 5.7 3.4 2.7 2.5 2.3 2.0 1.4 1.2 0.8 0.9 0.6 0.5 1.0 1.3 1.4 2.3 2.6 3.2 4.1 4.2 4.1 3.9 5.1 5.6
12.6 11.4 11.6 11.4 10.6 11.7 12.1 11.1 10.9 8.3 8.0 7.7 6.9 6.5 4.8 4.4 3.3 2.3 3.8 3.1 1.8 0.9 0.5 0.4 0.8 1.0 0.9 1.2 1.4 1.2 1.3 1.1 1.8 2.0 2.8 4.3 4.5 4.7 4.1 3.6 3.5 3.7 3.9 3.7
8.4 7.9 8.4 8.3 5.2 4.0 5.1 6.5 4.7 4.5 4.2 4.1 3.5 2.5 1.7 1.7 2.4 1.3 0.6 0.8 0.4 0.0 0.1 0.6 0.4 0.4 0.9 1.4 1.8 1.7 2.3 2.3 3.8 3.9 3.1 2.2 3.6 3.1 2.8 2.5 2.0 1.6 1.9 2.1
5.3 5.0 4.8 3.6 2.9 4.1 3.5 3.0 2.6 3.3 2.4 2.4 2.0 1.2 0.5 0.3 0.2 0.8 0.4 0.6 0.1 0.5 1.1 0.8 0.6 0.6 1.7 2.2 2.4 2.7 3.4 3.6 3.6 3.6 3.0 2.6 2.7 2.3 2.6 2.0 1.8 2.2 1.5 1.9
3.0 2.9 3.4 3.2 3.2 3.4 3.1 2.1 2.7 3.1 2.0 2.4 2.6 2.1 1.6 0.6 0.5 0.4 0.5 0.7 0.4 0.5 1.7 3.0 1.8 2.0 2.7 3.2 3.4 3.8 3.6 3.5 3.3 2.5 2.4 1.8 1.9 1.4 1.4 0.9 1.1 0.7 1.1 1.1
3.7 3.4 3.1 3.3 3.4 2.9 2.6 2.5 2.6 2.3 1.9 1.8 2.0 2.5 1.4 1.4 1.0 0.5 0.5 0.9 1.2 1.8 2.6 2.9 2.9 3.1 3.0 3.0 3.0 2.4 2.2 2.1 1.6 1.4 1.1 1.3 1.3 1.1 1.1 0.7 0.8 0.5 0.7 0.8